This is the latest recevied weather packets stored in our database for station/object KC3AWA. If no packets are shown the sender has not sent any weather packets the latest 10 day(s).
| Time | Temp. | Humidity | Pressure | Rain* | Wind** | Luminosity | Snow |
|---|---|---|---|---|---|---|---|
| 1777979084 | 16.67° C | 68% | 1006.9 hPa | 0 mm | - | 55 W/m² | - |
| 1777978780 | 16.67° C | 66% | 1007 hPa | 0 mm | - | 59 W/m² | - |
| 1777978477 | 16.67° C | 68% | 1007.1 hPa | 0 mm | - | 58 W/m² | - |
| 1777978173 | 16.67° C | 67% | 1007.1 hPa | 0 mm | - | 47 W/m² | - |
| 1777977870 | 16.67° C | 67% | 1007 hPa | 0 mm | - | 37 W/m² | - |
| 1777977567 | 16.11° C | 68% | 1006.9 hPa | 0 mm | - | 28 W/m² | - |
| 1777977264 | 16.11° C | 68% | 1007 hPa | 0 mm | - | 20 W/m² | - |
| 1777976961 | 16.11° C | 68% | 1006.8 hPa | 0 mm | - | 14 W/m² | - |
| 1777976658 | 16.11° C | 68% | 1006.9 hPa | 0 mm | - | 8 W/m² | - |
| 1777976354 | 16.11° C | 67% | 1006.8 hPa | 0 mm | - | 6 W/m² | - |
| 1777976049 | 16.11° C | 68% | 1006.8 hPa | 0 mm | - | 3 W/m² | - |
| 1777975745 | 16.11° C | 67% | 1006.5 hPa | 0 mm | - | 2 W/m² | - |
| 1777975442 | 16.11° C | 67% | 1006.8 hPa | 0 mm | - | 1 W/m² | - |
| 1777975137 | 16.67° C | 66% | 1006.7 hPa | 0 mm | - | 0 W/m² | - |
| 1777974835 | 16.67° C | 66% | 1006.5 hPa | 0 mm | - | 0 W/m² | - |
| 1777974531 | 16.67° C | 67% | 1006.7 hPa | 0 mm | - | 0 W/m² | - |
| 1777974228 | 16.67° C | 66% | 1006.8 hPa | 0 mm | - | 0 W/m² | - |
| 1777973924 | 16.67° C | 66% | 1006.6 hPa | 0 mm | - | 0 W/m² | - |
| 1777973621 | 16.67° C | 67% | 1006.5 hPa | 0 mm | - | 0 W/m² | - |
| 1777973318 | 16.67° C | 67% | 1006.9 hPa | 0 mm | - | 0 W/m² | - |
| 1777973017 | 16.67° C | 68% | 1006.6 hPa | 0 mm | - | 0 W/m² | - |
| 1777972713 | 16.67° C | 66% | 1006.4 hPa | 0 mm | - | 0 W/m² | - |
| 1777972411 | 16.67° C | 65% | 1006.4 hPa | 0 mm | - | 0 W/m² | - |
| 1777972109 | 16.67° C | 67% | 1006.5 hPa | 0 mm | - | 0 W/m² | - |
| 1777971807 | 16.67° C | 65% | 1006.6 hPa | 0 mm | - | 0 W/m² | - |
* Rain latest hour (hover to see other rain measurements)
** Current wind speed in m/s (hover to see current wind gust speed)